M I D A S
Marine Information and Data Acquisition System
Tripno 1020 of the Zeeleeuw from 2005-12-08 07:33:22 to 2005-12-08 15:37:49
Back to CruiseResearch ActivitiesStationsMapUnderway DataData graphs

EquipmentUnitsComments
TimeDGPSUTC
LatitudeDGPSDM.mWGS84
LongitudeDGPSDM.mWGS84
SpeedMeteo Stationm/sRelative wind speed
DirectionMeteo StationdegRelative wind direction
TemperatureMeteo Stationdeg CelciusAir temperature
PressureMeteo StationPaAtmospheric pressure
HumidityMeteo Station%Relative humidity
Missing or incorrect values are displayed as -999
Metereological data collected by the RV Zeeleeuw from 2005-12-08 07:25:07 to 2005-12-08 15:48:48
Time Latitude Longitude Speed Direction Temperature Pressure Humidity
2005-12-08 07:26 51°13.603 2°56.069 -999 21 5.2 100970 92
2005-12-08 07:27 51°13.618 2°56.013 -999 7 5.2 100970 91
2005-12-08 07:28 51°13.639 2°55.944 -999 340 5.1 100980 91
2005-12-08 07:29 51°13.674 2°55.869 -999 356 5.1 100980 91
2005-12-08 07:30 51°13.735 2°55.77 -999 7 5.1 100980 91
2005-12-08 07:31 51°13.798 2°55.67 -999 318 5.1 100980 91
2005-12-08 07:32 51°13.886 2°55.629 -999 261 5.2 100990 91
2005-12-08 07:33 51°13.943 2°55.652 -999 262 5.2 100990 91
2005-12-08 07:34 51°13.983 2°55.556 -999 162 5.2 100990 91
2005-12-08 07:35 51°14.114 2°55.428 -999 125 5.3 100990 91
2005-12-08 07:36 51°14.257 2°55.263 -999 115 5.3 100990 90
2005-12-08 07:37 51°14.395 2°55.031 -999 94 5.3 100990 90
2005-12-08 07:38 51°14.568 2°54.86 -999 95 5.2 100970 90
2005-12-08 07:39 51°14.755 2°54.677 -999 112 5.2 100960 90
2005-12-08 07:40 51°14.955 2°54.528 -999 100 5.3 100960 90
2005-12-08 07:41 51°15.165 2°54.411 -999 102 5.3 100990 90
2005-12-08 07:42 51°15.371 2°54.277 -999 112 5.4 101000 90
2005-12-08 07:43 51°15.579 2°54.143 -999 92 5.4 100970 91
2005-12-08 07:44 51°15.788 2°54.011 -999 85 5.4 100970 91
2005-12-08 07:45 51°15.999 2°53.878 -999 95 5.4 100980 91
2005-12-08 07:46 51°16.209 2°53.746 -999 121 5.4 100970 91
2005-12-08 07:47 51°16.419 2°53.617 -999 108 5.4 100970 91
2005-12-08 07:48 51°16.63 2°53.488 -999 109 5.5 100980 91
2005-12-08 07:49 51°16.844 2°53.371 -999 96 5.5 100990 91
2005-12-08 07:50 51°17.058 2°53.277 -999 95 5.5 100990 91
2005-12-08 07:51 51°17.285 2°53.257 -999 96 5.5 100980 91
2005-12-08 07:52 51°17.513 2°53.271 -999 86 5.5 100980 91
2005-12-08 07:53 51°17.729 2°53.384 -999 63 5.6 100980 92
2005-12-08 07:54 51°17.924 2°53.569 -999 62 5.6 100970 92
2005-12-08 07:55 51°18.114 2°53.767 -999 60 5.6 100970 91
2005-12-08 07:56 51°18.287 2°54.003 -999 -999 5.5 100980 91
2005-12-08 07:57 51°18.461 2°54.237 -999 59 5.6 100980 92
2005-12-08 07:58 51°18.636 2°54.468 -999 61 5.6 100980 91
2005-12-08 07:59 51°18.812 2°54.697 -999 63 5.5 100980 91
2005-12-08 08:00 51°18.987 2°54.922 -999 70 5.5 100980 91
2005-12-08 08:01 51°19.161 2°55.148 -999 62 5.6 100990 92
2005-12-08 08:02 51°19.335 2°55.37 -999 63 5.5 100990 91
2005-12-08 08:03 51°19.509 2°55.592 -999 57 5.5 101000 91
2005-12-08 08:04 51°19.684 2°55.81 -999 60 5.6 101000 91
2005-12-08 08:05 51°19.858 2°56.03 -999 62 5.5 100990 91
2005-12-08 08:06 51°20.03 2°56.249 -999 60 5.5 100990 90
2005-12-08 08:07 51°20.197 2°56.477 -999 61 5.5 101000 90
2005-12-08 08:08 51°20.365 2°56.706 -999 57 5.6 101000 91
2005-12-08 08:09 51°20.532 2°56.935 -999 63 5.6 101000 91
2005-12-08 08:10 51°20.701 2°57.162 -999 60 5.6 101010 91
2005-12-08 08:11 51°20.87 2°57.391 -999 56 5.6 101020 91
2005-12-08 08:12 51°21.039 2°57.621 -999 51 5.6 101010 91
2005-12-08 08:13 51°21.21 2°57.852 -999 48 5.5 101020 91
2005-12-08 08:14 51°21.379 2°58.085 -999 54 5.6 101020 91
2005-12-08 08:15 51°21.546 2°58.324 -999 47 5.6 101030 91
2005-12-08 08:16 51°21.706 2°58.576 -999 50 5.5 101020 91
2005-12-08 08:17 51°21.865 2°58.831 -999 54 5.5 101030 91
2005-12-08 08:18 51°22.024 2°59.088 -999 50 5.5 101040 91
2005-12-08 08:19 51°22.185 2°59.341 -999 48 5.6 101040 91
2005-12-08 08:20 51°22.344 2°59.596 -999 50 5.5 101030 92
2005-12-08 08:21 51°22.503 2°59.849 -999 54 5.5 101040 91
2005-12-08 08:22 51°22.665 3°0.104 -999 -999 5.5 101080 91
2005-12-08 08:23 51°22.826 3°0.359 -999 57 5.5 101040 91
2005-12-08 08:24 51°22.986 3°0.614 -999 55 5.4 101040 91
2005-12-08 08:25 51°23.146 3°0.869 -999 59 5.4 101050 91
2005-12-08 08:26 51°23.313 3°1.114 -999 50 5.4 101060 91
2005-12-08 08:27 51°23.48 3°1.359 -999 66 5.4 101040 90
2005-12-08 08:28 51°23.645 3°1.604 -999 51 5.4 101050 90
2005-12-08 08:29 51°23.811 3°1.847 -999 55 5.4 101050 90
2005-12-08 08:30 51°23.976 3°2.092 -999 49 5.5 101060 90
2005-12-08 08:31 51°24.142 3°2.336 -999 50 5.5 101050 90
2005-12-08 08:32 51°24.307 3°2.58 -999 52 5.4 101060 90
2005-12-08 08:33 51°24.473 3°2.826 -999 52 5.5 101060 90
2005-12-08 08:34 51°24.638 3°3.07 -999 54 5.5 101060 91
2005-12-08 08:35 51°24.803 3°3.311 -999 59 5.5 101070 91
2005-12-08 08:36 51°24.968 3°3.554 -999 51 5.5 101080 90
2005-12-08 08:37 51°25.134 3°3.801 -999 49 5.5 101110 90
2005-12-08 08:38 51°25.301 3°4.048 -999 56 5.5 101110 90
2005-12-08 08:39 51°25.467 3°4.294 -999 44 5.5 101080 89
2005-12-08 08:40 51°25.634 3°4.54 -999 45 5.5 101090 89
2005-12-08 08:41 51°25.802 3°4.784 -999 47 5.6 101100 89
2005-12-08 08:42 51°25.969 3°5.029 -999 49 5.6 101100 90
2005-12-08 08:43 51°26.138 3°5.27 -999 -999 5.6 101110 89
2005-12-08 08:44 51°26.307 3°5.512 -999 40 5.6 101100 90
2005-12-08 08:45 51°26.475 3°5.753 -999 40 5.6 101120 90
2005-12-08 08:46 51°26.642 3°5.994 -999 44 5.6 101120 90
2005-12-08 08:47 51°26.809 3°6.234 -999 39 5.6 101120 90
2005-12-08 08:48 51°26.976 3°6.471 -999 47 5.7 101130 90
2005-12-08 08:49 51°27.143 3°6.709 -999 45 5.6 101160 90
2005-12-08 08:50 51°27.309 3°6.946 -999 43 5.7 101130 90
2005-12-08 08:51 51°27.476 3°7.181 -999 42 5.7 101130 90
2005-12-08 08:52 51°27.638 3°7.422 -999 28 5.7 101140 89
2005-12-08 08:53 51°27.754 3°7.649 -999 36 5.8 101180 90
2005-12-08 08:54 51°27.831 3°7.795 -999 45 5.8 101190 90
2005-12-08 08:55 51°27.861 3°7.834 -999 14 5.7 101200 89
2005-12-08 08:56 51°27.877 3°7.827 -999 8 5.7 101220 89
2005-12-08 08:57 51°27.892 3°7.817 -999 13 5.7 101220 89
2005-12-08 08:58 51°27.877 3°7.854 -999 313 5.8 101200 89
2005-12-08 08:59 51°27.828 3°7.791 -999 281 5.7 101210 88
2005-12-08 09:00 51°27.819 3°7.76 -999 -999 5.8 101200 89
2005-12-08 09:01 51°27.83 3°7.739 -999 265 5.8 101240 89
2005-12-08 09:02 51°27.843 3°7.717 -999 265 5.8 101230 89
2005-12-08 09:03 51°27.855 3°7.697 -999 257 5.8 101240 88
2005-12-08 09:04 51°27.865 3°7.676 -999 271 5.8 101240 89
2005-12-08 09:05 51°27.876 3°7.655 -999 275 5.8 101250 89
2005-12-08 09:06 51°27.888 3°7.633 -999 275 5.8 101240 88
2005-12-08 09:07 51°27.899 3°7.612 -999 273 5.8 101250 89
2005-12-08 09:08 51°27.91 3°7.59 -999 278 5.9 101240 89
2005-12-08 09:09 51°27.921 3°7.568 -999 280 5.8 101240 89
2005-12-08 09:10 51°27.931 3°7.547 -999 262 5.8 101250 89
2005-12-08 09:11 51°27.941 3°7.524 -999 283 5.9 101240 89
2005-12-08 09:12 51°27.951 3°7.503 -999 268 5.9 101250 89
2005-12-08 09:13 51°27.962 3°7.48 -999 280 5.8 101250 89
2005-12-08 09:14 51°27.971 3°7.456 -999 281 5.9 101240 89
2005-12-08 09:15 51°27.975 3°7.434 -999 292 5.8 101250 89
2005-12-08 09:16 51°27.942 3°7.451 -999 347 5.8 101240 89
2005-12-08 09:17 51°27.918 3°7.558 -999 338 5.9 101250 89
2005-12-08 09:18 51°27.87 3°7.689 -999 348 5.9 101240 88
2005-12-08 09:19 51°27.816 3°7.83 -999 357 5.9 101250 88
2005-12-08 09:20 51°27.815 3°7.9 -999 3 5.9 101250 88
2005-12-08 09:21 51°27.827 3°7.887 -999 346 5.9 101270 88
2005-12-08 09:22 51°27.839 3°7.867 -999 319 5.9 101270 87
2005-12-08 09:23 51°27.852 3°7.842 -999 302 5.9 101270 87
2005-12-08 09:24 51°27.865 3°7.819 -999 289 5.9 101270 87
2005-12-08 09:25 51°27.879 3°7.796 -999 277 6 101270 88
2005-12-08 09:26 51°27.892 3°7.774 -999 262 5.9 101270 86
2005-12-08 09:27 51°27.906 3°7.753 -999 259 5.9 101270 86
2005-12-08 09:28 51°27.919 3°7.732 -999 261 6 101270 87
2005-12-08 09:29 51°27.932 3°7.71 -999 265 5.9 101270 86
2005-12-08 09:30 51°27.943 3°7.686 -999 266 6 101270 87
2005-12-08 09:31 51°27.953 3°7.662 -999 276 6 101280 85
2005-12-08 09:32 51°27.93 3°7.65 -999 333 6 101280 86
2005-12-08 09:33 51°27.892 3°7.712 -999 346 6 101260 86
2005-12-08 09:34 51°27.84 3°7.8 -999 339 6.1 101270 86
2005-12-08 09:35 51°27.786 3°7.873 -999 352 6.1 101270 85
2005-12-08 09:36 51°27.778 3°7.898 -999 338 6 101280 85
2005-12-08 09:37 51°27.782 3°7.887 -999 328 6.1 101280 85
2005-12-08 09:38 51°27.788 3°7.866 -999 303 6 101280 84
2005-12-08 09:39 51°27.795 3°7.841 -999 278 6 101280 84
2005-12-08 09:40 51°27.804 3°7.813 -999 284 6.1 101290 85
2005-12-08 09:41 51°27.814 3°7.785 -999 271 6 101290 84
2005-12-08 09:42 51°27.825 3°7.759 -999 258 6.1 101290 84
2005-12-08 09:43 51°27.834 3°7.733 -999 259 6 101290 84
2005-12-08 09:44 51°27.843 3°7.708 -999 279 6.1 101290 85
2005-12-08 09:45 51°27.851 3°7.685 -999 288 6.1 101300 85
2005-12-08 09:46 51°27.862 3°7.661 -999 295 6.1 101300 84
2005-12-08 09:47 51°27.871 3°7.636 -999 274 6.1 101300 84
2005-12-08 09:48 51°27.879 3°7.611 -999 290 6.1 101300 84
2005-12-08 09:49 51°27.867 3°7.593 -999 327 6.2 101310 84
2005-12-08 09:50 51°27.849 3°7.632 -999 24 6.2 101300 84
2005-12-08 09:51 51°27.858 3°7.728 -999 10 6.3 101290 85
2005-12-08 09:52 51°27.824 3°7.824 -999 360 6.2 101300 83
2005-12-08 09:53 51°27.816 3°7.889 -999 10 6.2 101300 82
2005-12-08 09:54 51°27.82 3°7.905 -999 342 6.3 101300 82
2005-12-08 09:55 51°27.827 3°7.889 -999 309 6.3 101310 83
2005-12-08 09:56 51°27.835 3°7.865 -999 281 6.4 101310 83
2005-12-08 09:57 51°27.843 3°7.842 -999 267 6.4 101310 83
2005-12-08 09:58 51°27.853 3°7.817 -999 263 6.4 101310 83
2005-12-08 09:59 51°27.861 3°7.793 -999 262 6.4 101320 83
2005-12-08 10:00 51°27.869 3°7.768 -999 263 6.4 101310 83
2005-12-08 10:01 51°27.875 3°7.743 -999 274 6.4 101320 83
2005-12-08 10:02 51°27.881 3°7.719 -999 275 6.4 101320 83
2005-12-08 10:03 51°27.887 3°7.697 -999 -999 6.4 101320 83
2005-12-08 10:04 51°27.892 3°7.672 -999 270 6.3 101330 82
2005-12-08 10:05 51°27.897 3°7.648 -999 281 6.3 101330 82
2005-12-08 10:06 51°27.903 3°7.624 -999 275 6.4 101330 82
2005-12-08 10:07 51°27.906 3°7.6 -999 294 6.4 101330 83
2005-12-08 10:08 51°27.879 3°7.629 -999 357 6.4 101320 82
2005-12-08 10:09 51°27.913 3°7.717 -999 42 6.4 101320 82
2005-12-08 10:10 51°27.977 3°7.885 -999 -999 6.4 101310 84
2005-12-08 10:11 51°28.025 3°8.049 -999 356 6.4 101330 83
2005-12-08 10:12 51°28.001 3°8.113 -999 302 6.4 101330 83
2005-12-08 10:13 51°27.978 3°8.102 -999 268 6.3 101340 82
2005-12-08 10:14 51°27.979 3°8.08 -999 272 6.3 101350 82
2005-12-08 10:15 51°27.983 3°8.056 -999 271 6.4 101360 83
2005-12-08 10:16 51°27.987 3°8.034 -999 269 6.4 101360 83
2005-12-08 10:17 51°27.99 3°8.012 -999 287 6.4 101360 82
2005-12-08 10:18 51°27.992 3°7.992 -999 292 6.4 101360 83
2005-12-08 10:19 51°27.995 3°7.969 -999 -999 6.3 101370 82
2005-12-08 10:20 51°27.984 3°7.962 -999 325 6.3 101370 82
2005-12-08 10:21 51°27.985 3°8.023 -999 37 6.3 101370 81
2005-12-08 10:22 51°28.064 3°8.014 -999 151 6.3 101370 81
2005-12-08 10:23 51°28.058 3°7.861 -999 241 6.4 101380 82
2005-12-08 10:24 51°27.986 3°7.735 -999 311 6.4 101390 81
2005-12-08 10:25 51°27.916 3°7.839 -999 345 6.4 101370 81
2005-12-08 10:26 51°27.834 3°8.038 -999 347 6.4 101360 81
2005-12-08 10:27 51°27.736 3°8.239 -999 346 6.5 101360 81
2005-12-08 10:28 51°27.651 3°8.456 -999 347 6.5 101370 81
2005-12-08 10:29 51°27.607 3°8.607 -999 336 6.6 101380 82
2005-12-08 10:30 51°27.587 3°8.629 -999 278 6.6 101380 82
2005-12-08 10:31 51°27.598 3°8.612 -999 260 6.5 101380 82
2005-12-08 10:32 51°27.592 3°8.583 -999 261 6.5 101390 81
2005-12-08 10:33 51°27.589 3°8.554 -999 266 6.5 101390 81
2005-12-08 10:34 51°27.587 3°8.532 -999 277 6.5 101390 81
2005-12-08 10:35 51°27.587 3°8.51 -999 281 6.5 101390 81
2005-12-08 10:36 51°27.59 3°8.488 -999 -999 6.5 101390 81
2005-12-08 10:37 51°27.584 3°8.464 -999 264 6.5 101380 81
2005-12-08 10:38 51°27.563 3°8.382 -999 193 6.5 101400 81
2005-12-08 10:39 51°27.612 3°8.303 -999 101 6.6 101410 81
2005-12-08 10:40 51°27.673 3°8.359 -999 14 6.5 101400 82
2005-12-08 10:41 51°27.636 3°8.517 -999 357 6.5 101390 82
2005-12-08 10:42 51°27.623 3°8.617 -999 351 6.6 101390 82
2005-12-08 10:43 51°27.62 3°8.625 -999 -999 6.6 101400 82
2005-12-08 10:44 51°27.619 3°8.607 -999 281 6.6 101400 82
2005-12-08 10:45 51°27.619 3°8.583 -999 272 6.7 101410 82
2005-12-08 10:46 51°27.62 3°8.557 -999 264 6.7 101410 81
2005-12-08 10:47 51°27.62 3°8.53 -999 261 6.6 101410 81
2005-12-08 10:48 51°27.62 3°8.505 -999 -999 6.7 101410 82
2005-12-08 10:49 51°27.62 3°8.482 -999 268 6.7 101410 82
2005-12-08 10:50 51°27.62 3°8.458 -999 277 6.6 101410 81
2005-12-08 10:51 51°27.583 3°8.419 -999 276 6.6 101400 81
2005-12-08 10:52 51°27.529 3°8.224 -999 221 6.8 101410 82
2005-12-08 10:53 51°27.625 3°8.003 -999 101 6.7 101420 82
2005-12-08 10:54 51°27.776 3°7.91 -999 101 6.6 101420 81
2005-12-08 10:55 51°27.832 3°7.881 -999 -999 6.6 101420 81
2005-12-08 10:56 51°27.833 3°7.875 -999 170 6.6 101430 81
2005-12-08 10:57 51°27.829 3°7.89 -999 204 6.7 101430 83
2005-12-08 10:58 51°27.815 3°7.838 -999 268 6.8 101420 81
2005-12-08 10:59 51°27.822 3°7.815 -999 264 6.7 101420 81
2005-12-08 11:00 51°27.811 3°7.8 -999 -999 6.8 101420 81
2005-12-08 11:01 51°27.783 3°7.853 -999 9 6.8 101420 81
2005-12-08 11:02 51°27.771 3°7.897 -999 338 6.9 101420 81
2005-12-08 11:03 51°27.774 3°7.878 -999 303 6.9 101420 81
2005-12-08 11:04 51°27.777 3°7.853 -999 282 7 101420 81
2005-12-08 11:05 51°27.779 3°7.828 -999 267 7 101420 81
2005-12-08 11:06 51°27.78 3°7.802 -999 260 6.9 101430 80
2005-12-08 11:07 51°27.781 3°7.776 -999 -999 6.9 101430 81
2005-12-08 11:08 51°27.781 3°7.751 -999 270 6.9 101430 81
2005-12-08 11:09 51°27.78 3°7.725 -999 268 6.9 101420 81
2005-12-08 11:10 51°27.773 3°7.698 -999 261 6.9 101420 80
2005-12-08 11:11 51°27.753 3°7.642 -999 219 6.8 101430 80
2005-12-08 11:12 51°27.764 3°7.552 -999 135 6.9 101450 80
2005-12-08 11:13 51°27.814 3°7.512 -999 80 6.8 101450 81
2005-12-08 11:14 51°27.855 3°7.545 -999 31 6.8 101430 81
2005-12-08 11:15 51°27.853 3°7.611 -999 348 6.7 101440 81
2005-12-08 11:16 51°27.818 3°7.67 -999 356 6.8 101430 81
2005-12-08 11:17 51°27.82 3°7.746 -999 21 6.9 101440 80
2005-12-08 11:18 51°27.839 3°7.834 -999 24 6.9 101440 81
2005-12-08 11:19 51°27.859 3°7.923 -999 29 6.9 101440 80
2005-12-08 11:20 51°27.871 3°7.976 -999 14 6.9 101440 80
2005-12-08 11:21 51°27.877 3°8.006 -999 16 6.9 101460 80
2005-12-08 11:22 51°27.88 3°8.019 -999 11 6.9 101450 80
2005-12-08 11:23 51°27.881 3°8.019 -999 9 6.9 101470 79
2005-12-08 11:24 51°27.881 3°8.012 -999 10 7 101460 80
2005-12-08 11:25 51°27.879 3°7.996 -999 10 6.9 101460 79
2005-12-08 11:26 51°27.879 3°7.974 -999 358 7 101460 79
2005-12-08 11:27 51°27.877 3°7.946 -999 340 7 101460 80
2005-12-08 11:28 51°27.876 3°7.914 -999 313 7 101460 80
2005-12-08 11:29 51°27.877 3°7.884 -999 299 7 101460 80
2005-12-08 11:30 51°27.879 3°7.856 -999 276 7.1 101470 80
2005-12-08 11:31 51°27.879 3°7.829 -999 268 7.1 101460 79
2005-12-08 11:32 51°27.879 3°7.803 -999 254 7.1 101480 80
2005-12-08 11:33 51°27.878 3°7.776 -999 253 7 101480 80
2005-12-08 11:34 51°27.875 3°7.749 -999 -999 6.9 101480 80
2005-12-08 11:35 51°27.872 3°7.723 -999 274 6.9 101480 81
2005-12-08 11:36 51°27.868 3°7.697 -999 276 7 101490 82
2005-12-08 11:37 51°27.863 3°7.67 -999 282 7 101490 82
2005-12-08 11:38 51°27.857 3°7.644 -999 275 7.1 101490 82
2005-12-08 11:39 51°27.851 3°7.617 -999 -999 7.1 101490 82
2005-12-08 11:40 51°27.846 3°7.59 -999 281 7 101490 81
2005-12-08 11:41 51°27.839 3°7.563 -999 269 7.1 101490 81
2005-12-08 11:42 51°27.831 3°7.535 -999 267 7.1 101500 81
2005-12-08 11:43 51°27.824 3°7.509 -999 276 7.1 101500 81
2005-12-08 11:44 51°27.815 3°7.481 -999 280 7.1 101500 80
2005-12-08 11:45 51°27.806 3°7.456 -999 282 7.2 101510 80
2005-12-08 11:46 51°27.797 3°7.428 -999 271 7.2 101500 80
2005-12-08 11:47 51°27.786 3°7.4 -999 276 7.2 101500 80
2005-12-08 11:48 51°27.778 3°7.374 -999 -999 7.2 101510 79
2005-12-08 11:49 51°27.767 3°7.345 -999 275 7.2 101510 79
2005-12-08 11:50 51°27.755 3°7.318 -999 282 7.2 101510 79
2005-12-08 11:51 51°27.724 3°7.309 -999 41 7.3 101510 79
2005-12-08 11:52 51°27.683 3°7.328 -999 311 7.3 101510 79
2005-12-08 11:53 51°27.597 3°7.363 -999 228 7.3 101510 79
2005-12-08 11:54 51°27.482 3°7.488 -999 345 7.2 101500 79
2005-12-08 11:55 51°27.437 3°7.692 -999 15 7.2 101500 79
2005-12-08 11:56 51°27.529 3°7.832 -999 54 7.2 101500 79
2005-12-08 11:57 51°27.675 3°7.815 -999 69 7 101510 80
2005-12-08 11:58 51°27.812 3°7.812 -999 56 6.9 101510 81
2005-12-08 11:59 51°27.875 3°7.81 -999 98 6.8 101520 81
2005-12-08 12:00 51°27.872 3°7.782 -999 121 6.8 101540 81
2005-12-08 12:01 51°27.881 3°7.729 -999 161 6.9 101540 82
2005-12-08 12:02 51°27.832 3°7.625 -999 288 6.9 101530 81
2005-12-08 12:03 51°27.773 3°7.698 -999 6 7 101530 81
2005-12-08 12:04 51°27.816 3°7.789 -999 53 7.1 101510 80
2005-12-08 12:05 51°27.853 3°7.824 -999 26 6.9 101530 80
2005-12-08 12:06 51°27.852 3°7.816 -999 14 6.9 101540 80
2005-12-08 12:07 51°27.847 3°7.801 -999 10 7 101540 80
2005-12-08 12:08 51°27.841 3°7.78 -999 15 7 101550 80
2005-12-08 12:09 51°27.835 3°7.758 -999 14 7.1 101550 79
2005-12-08 12:10 51°27.831 3°7.739 -999 29 7.1 101540 79
2005-12-08 12:11 51°27.83 3°7.726 -999 33 7.1 101540 79
2005-12-08 12:12 51°27.832 3°7.716 -999 42 7 101550 79
2005-12-08 12:13 51°27.836 3°7.709 -999 49 7 101550 79
2005-12-08 12:14 51°27.842 3°7.705 -999 44 6.9 101550 79
2005-12-08 12:15 51°27.847 3°7.704 -999 42 6.9 101560 79
2005-12-08 12:16 51°27.852 3°7.706 -999 34 6.9 101560 79
2005-12-08 12:17 51°27.854 3°7.748 -999 349 6.9 101560 79
2005-12-08 12:18 51°27.833 3°7.812 -999 12 7 101560 79
2005-12-08 12:19 51°27.832 3°7.849 -999 21 7.1 101570 78
2005-12-08 12:20 51°27.835 3°7.865 -999 24 7.2 101570 79
2005-12-08 12:21 51°27.843 3°7.874 -999 31 7.2 101570 79
2005-12-08 12:22 51°27.848 3°7.881 -999 21 7.1 101580 79
2005-12-08 12:23 51°27.852 3°7.884 -999 19 7.1 101570 79
2005-12-08 12:24 51°27.852 3°7.879 -999 29 7.2 101580 79
2005-12-08 12:25 51°27.849 3°7.866 -999 -999 7.1 101590 79
2005-12-08 12:26 51°27.846 3°7.85 -999 39 7.1 101580 79
2005-12-08 12:27 51°27.844 3°7.828 -999 47 7.1 101590 79
2005-12-08 12:28 51°27.839 3°7.803 -999 54 7.1 101600 80
2005-12-08 12:29 51°27.836 3°7.777 -999 69 7 101590 80
2005-12-08 12:30 51°27.861 3°7.806 -999 17 7 101590 81
2005-12-08 12:31 51°27.834 3°7.89 -999 312 7 101590 81
2005-12-08 12:32 51°27.757 3°7.812 -999 180 7 101600 81
2005-12-08 12:33 51°27.801 3°7.698 -999 59 7 101600 81
2005-12-08 12:34 51°27.835 3°7.782 -999 -999 7 101590 81
2005-12-08 12:35 51°27.807 3°7.815 -999 335 7 101600 80
2005-12-08 12:36 51°27.79 3°7.794 -999 319 7 101600 81
2005-12-08 12:37 51°27.771 3°7.781 -999 312 7 101600 82
2005-12-08 12:38 51°27.751 3°7.779 -999 337 7 101610 83
2005-12-08 12:39 51°27.741 3°7.788 -999 9 7 101610 83
2005-12-08 12:40 51°27.768 3°7.788 -999 67 6.9 101600 83
2005-12-08 12:41 51°27.807 3°7.772 -999 40 6.9 101600 84
2005-12-08 12:42 51°27.816 3°7.78 -999 357 6.9 101600 85
2005-12-08 12:43 51°27.805 3°7.807 -999 307 6.9 101600 85
2005-12-08 12:44 51°27.788 3°7.793 -999 300 6.9 101610 86
2005-12-08 12:45 51°27.767 3°7.808 -999 338 7 101610 86
2005-12-08 12:46 51°27.762 3°7.828 -999 2 7 101620 85
2005-12-08 12:47 51°27.759 3°7.83 -999 -999 7.1 101620 85
2005-12-08 12:48 51°27.755 3°7.82 -999 25 7.1 101620 85
2005-12-08 12:49 51°27.779 3°7.798 -999 65 7 101610 84
2005-12-08 12:50 51°27.829 3°7.772 -999 32 7 101620 84
2005-12-08 12:51 51°27.844 3°7.791 -999 348 6.9 101630 85
2005-12-08 12:52 51°27.83 3°7.811 -999 -999 6.9 101630 84
2005-12-08 12:53 51°27.809 3°7.798 -999 284 7 101630 85
2005-12-08 12:54 51°27.785 3°7.782 -999 272 7.1 101630 85
2005-12-08 12:55 51°27.76 3°7.767 -999 285 7.2 101630 85
2005-12-08 12:56 51°27.736 3°7.751 -999 286 7.2 101630 85
2005-12-08 12:57 51°27.714 3°7.736 -999 299 7.3 101640 86
2005-12-08 12:58 51°27.696 3°7.756 -999 356 7.3 101630 85
2005-12-08 12:59 51°27.735 3°7.792 -999 19 7.2 101630 85
2005-12-08 13:00 51°27.794 3°7.856 -999 21 7.2 101640 85
2005-12-08 13:01 51°27.825 3°7.87 -999 19 7.1 101640 86
2005-12-08 13:02 51°27.825 3°7.861 -999 23 7.1 101640 86
2005-12-08 13:03 51°27.819 3°7.847 -999 22 7.1 101650 86
2005-12-08 13:04 51°27.809 3°7.828 -999 24 7.1 101640 86
2005-12-08 13:05 51°27.796 3°7.804 -999 27 7 101650 85
2005-12-08 13:06 51°27.786 3°7.786 -999 10 7 101650 85
2005-12-08 13:07 51°27.779 3°7.82 -999 359 7 101650 86
2005-12-08 13:08 51°27.805 3°7.862 -999 36 7 101650 86
2005-12-08 13:09 51°27.808 3°7.852 -999 13 7 101650 85
2005-12-08 13:10 51°27.798 3°7.837 -999 1 7.1 101660 86
2005-12-08 13:11 51°27.784 3°7.822 -999 3 7.1 101660 86
2005-12-08 13:12 51°27.795 3°7.815 -999 65 7 101650 86
2005-12-08 13:13 51°27.783 3°7.784 -999 103 7 101660 86
2005-12-08 13:14 51°27.766 3°7.748 -999 112 7 101670 86
2005-12-08 13:15 51°27.747 3°7.711 -999 -999 7 101670 87
2005-12-08 13:16 51°27.727 3°7.677 -999 109 6.9 101680 87
2005-12-08 13:17 51°27.706 3°7.643 -999 103 6.9 101670 87
2005-12-08 13:18 51°27.724 3°7.622 -999 14 6.9 101670 87
2005-12-08 13:19 51°27.719 3°7.702 -999 331 6.9 101660 87
2005-12-08 13:20 51°27.693 3°7.877 -999 346 6.9 101660 87
2005-12-08 13:21 51°27.678 3°8.093 -999 337 6.9 101650 87
2005-12-08 13:22 51°27.659 3°8.265 -999 344 7 101660 87
2005-12-08 13:23 51°27.642 3°8.381 -999 330 7.1 101670 86
2005-12-08 13:24 51°27.628 3°8.512 -999 -999 7 101670 86
2005-12-08 13:25 51°27.619 3°8.607 -999 348 7.1 101670 86
2005-12-08 13:26 51°27.594 3°8.595 -999 340 7.1 101680 86
2005-12-08 13:27 51°27.572 3°8.594 -999 360 7.1 101680 86
2005-12-08 13:28 51°27.558 3°8.597 -999 24 7.1 101690 86
2005-12-08 13:29 51°27.546 3°8.585 -999 42 7 101680 85
2005-12-08 13:30 51°27.564 3°8.569 -999 34 7 101690 86
2005-12-08 13:31 51°27.642 3°8.55 -999 59 6.9 101680 86
2005-12-08 13:32 51°27.645 3°8.517 -999 55 6.8 101690 87
2005-12-08 13:33 51°27.638 3°8.495 -999 36 6.8 101700 87
2005-12-08 13:34 51°27.644 3°8.548 -999 332 6.8 101690 87
2005-12-08 13:35 51°27.613 3°8.569 -999 280 6.8 101680 87
2005-12-08 13:36 51°27.587 3°8.548 -999 297 6.9 101700 87
2005-12-08 13:37 51°27.552 3°8.573 -999 331 7 101690 87
2005-12-08 13:38 51°27.529 3°8.597 -999 352 7 101700 86
2005-12-08 13:39 51°27.528 3°8.613 -999 35 7 101700 86
2005-12-08 13:40 51°27.528 3°8.599 -999 55 7 101700 86
2005-12-08 13:41 51°27.522 3°8.576 -999 67 6.9 101710 86
2005-12-08 13:42 51°27.51 3°8.549 -999 70 6.9 101710 87
2005-12-08 13:43 51°27.523 3°8.518 -999 57 6.9 101720 87
2005-12-08 13:44 51°27.624 3°8.47 -999 40 6.8 101700 87
2005-12-08 13:45 51°27.777 3°8.392 -999 41 6.8 101690 87
2005-12-08 13:46 51°27.93 3°8.267 -999 51 6.8 101690 87
2005-12-08 13:47 51°28.054 3°8.073 -999 76 6.8 101720 88
2005-12-08 13:48 51°28.059 3°7.923 -999 146 6.8 101730 88
2005-12-08 13:49 51°28.037 3°7.911 -999 146 6.8 101740 88
2005-12-08 13:50 51°28.014 3°7.895 -999 142 6.7 101740 88
2005-12-08 13:51 51°27.99 3°7.871 -999 132 6.8 101740 88
2005-12-08 13:52 51°27.964 3°7.846 -999 138 6.8 101740 88
2005-12-08 13:53 51°27.938 3°7.82 -999 134 6.8 101750 88
2005-12-08 13:54 51°27.912 3°7.791 -999 131 6.9 101750 89
2005-12-08 13:55 51°27.887 3°7.763 -999 126 6.8 101750 88
2005-12-08 13:56 51°27.861 3°7.733 -999 123 6.9 101750 88
2005-12-08 13:57 51°27.837 3°7.703 -999 123 6.9 101760 89
2005-12-08 13:58 51°27.811 3°7.672 -999 -999 6.9 101760 88
2005-12-08 13:59 51°27.786 3°7.642 -999 113 6.8 101760 88
2005-12-08 14:00 51°27.761 3°7.612 -999 114 6.8 101760 88
2005-12-08 14:01 51°27.755 3°7.556 -999 -999 6.9 101760 88
2005-12-08 14:02 51°27.814 3°7.568 -999 349 6.9 101740 87
2005-12-08 14:03 51°27.873 3°7.667 -999 5 6.9 101750 87
2005-12-08 14:04 51°27.948 3°7.803 -999 1 7 101750 87
2005-12-08 14:05 51°28.02 3°7.938 -999 7 7 101750 87
2005-12-08 14:06 51°28.032 3°8.007 -999 317 7 101760 87
2005-12-08 14:07 51°28.006 3°8 -999 272 7.1 101760 87
2005-12-08 14:08 51°27.975 3°7.985 -999 -999 7 101770 86
2005-12-08 14:09 51°27.942 3°7.967 -999 265 7 101770 87
2005-12-08 14:10 51°27.911 3°7.95 -999 265 7.1 101770 87
2005-12-08 14:11 51°27.88 3°7.933 -999 277 7.1 101780 87
2005-12-08 14:12 51°27.851 3°7.917 -999 276 7.1 101780 87
2005-12-08 14:13 51°27.816 3°7.91 -999 279 7.2 101770 87
2005-12-08 14:14 51°27.719 3°7.966 -999 286 7.2 101780 87
2005-12-08 14:15 51°27.524 3°7.951 -999 295 7.3 101780 86
2005-12-08 14:16 51°27.325 3°7.746 -999 313 7.3 101790 86
2005-12-08 14:17 51°27.123 3°7.549 -999 336 7.3 101790 86
2005-12-08 14:18 51°26.926 3°7.345 -999 339 7.4 101790 86
2005-12-08 14:19 51°26.73 3°7.137 -999 -999 7.4 101800 86
2005-12-08 14:20 51°26.538 3°6.93 -999 343 7.4 101800 86
2005-12-08 14:21 51°26.342 3°6.722 -999 329 7.5 101800 85
2005-12-08 14:22 51°26.141 3°6.509 -999 314 7.5 101800 85
2005-12-08 14:23 51°25.946 3°6.297 -999 228 7.5 101800 85
2005-12-08 14:24 51°25.747 3°6.099 -999 305 7.5 101800 85
2005-12-08 14:25 51°25.548 3°5.905 -999 302 7.5 101810 85
2005-12-08 14:26 51°25.351 3°5.712 -999 291 7.6 101810 84
2005-12-08 14:27 51°25.153 3°5.517 -999 306 7.6 101800 84
2005-12-08 14:28 51°24.953 3°5.32 -999 302 7.6 101810 84
2005-12-08 14:29 51°24.762 3°5.13 -999 296 7.7 101810 84
2005-12-08 14:30 51°24.565 3°4.935 -999 264 7.7 101810 84
2005-12-08 14:31 51°24.373 3°4.741 -999 291 7.7 101800 83
2005-12-08 14:32 51°24.182 3°4.554 -999 284 7.7 101810 83
2005-12-08 14:33 51°23.992 3°4.367 -999 255 7.7 101810 83
2005-12-08 14:34 51°23.803 3°4.182 -999 259 7.7 101810 83
2005-12-08 14:35 51°23.611 3°3.987 -999 237 7.7 101810 82
2005-12-08 14:36 51°23.427 3°3.793 -999 254 7.7 101820 82
2005-12-08 14:37 51°23.244 3°3.584 -999 230 7.6 101820 81
2005-12-08 14:38 51°23.07 3°3.349 -999 197 7.6 101820 81
2005-12-08 14:39 51°22.905 3°3.109 -999 131 7.6 101820 81
2005-12-08 14:40 51°22.741 3°2.867 -999 137 7.6 101820 81
2005-12-08 14:41 51°22.571 3°2.618 -999 125 7.6 101820 81
2005-12-08 14:42 51°22.407 3°2.369 -999 84 7.6 101820 81
2005-12-08 14:43 51°22.25 3°2.109 -999 106 7.6 101830 81
2005-12-08 14:44 51°22.091 3°1.852 -999 81 7.5 101820 82
2005-12-08 14:45 51°21.933 3°1.601 -999 130 7.4 101830 82
2005-12-08 14:46 51°21.774 3°1.346 -999 128 7.4 101830 83
2005-12-08 14:47 51°21.617 3°1.096 -999 120 7.4 101840 83
2005-12-08 14:48 51°21.455 3°0.837 -999 120 7.3 101830 84
2005-12-08 14:49 51°21.307 3°0.571 -999 113 7.3 101830 84
2005-12-08 14:50 51°21.158 3°0.306 -999 108 7.3 101840 85
2005-12-08 14:51 51°21.01 3°0.04 -999 78 7.3 101840 86
2005-12-08 14:52 51°20.866 2°59.776 -999 104 7.2 101840 86
2005-12-08 14:53 51°20.714 2°59.507 -999 121 7.2 101840 87
2005-12-08 14:54 51°20.568 2°59.242 -999 127 7.1 101840 87
2005-12-08 14:55 51°20.416 2°58.967 -999 119 7.1 101850 88
2005-12-08 14:56 51°20.284 2°58.674 -999 93 7.1 101850 88
2005-12-08 14:57 51°20.168 2°58.363 -999 112 7 101850 88
2005-12-08 14:58 51°20.048 2°58.056 -999 110 7 101850 88
2005-12-08 14:59 51°19.931 2°57.754 -999 103 7 101850 89
2005-12-08 15:00 51°19.815 2°57.453 -999 116 7 101850 89
2005-12-08 15:01 51°19.673 2°57.184 -999 138 7 101860 89
2005-12-08 15:02 51°19.524 2°56.928 -999 71 6.9 101860 89
2005-12-08 15:03 51°19.366 2°56.678 -999 132 7 101860 90
2005-12-08 15:04 51°19.201 2°56.422 -999 78 7 101860 90
2005-12-08 15:05 51°19.041 2°56.168 -999 120 7.1 101860 90
2005-12-08 15:06 51°18.881 2°55.912 -999 141 7.1 101870 89
2005-12-08 15:07 51°18.722 2°55.654 -999 110 7 101870 90
2005-12-08 15:08 51°18.563 2°55.395 -999 91 7.1 101870 90
2005-12-08 15:09 51°18.405 2°55.139 -999 135 7 101870 90
2005-12-08 15:10 51°18.238 2°54.895 -999 230 7.1 101870 90
2005-12-08 15:11 51°18.07 2°54.651 -999 179 7.1 101870 90
2005-12-08 15:12 51°17.903 2°54.412 -999 334 7.1 101870 90
2005-12-08 15:13 51°17.734 2°54.183 -999 235 7.2 101870 90
2005-12-08 15:14 51°17.566 2°53.958 -999 285 7.2 101870 90
2005-12-08 15:15 51°17.395 2°53.736 -999 247 7.2 101870 90
2005-12-08 15:16 51°17.214 2°53.541 -999 234 7.2 101870 90
2005-12-08 15:17 51°17.035 2°53.344 -999 236 7.2 101870 89
2005-12-08 15:18 51°16.853 2°53.16 -999 242 7.2 101880 89
2005-12-08 15:19 51°16.661 2°52.982 -999 291 7.2 101880 89
2005-12-08 15:20 51°16.45 2°52.912 -999 285 7.2 101880 89
2005-12-08 15:21 51°16.276 2°52.869 -999 218 7.2 101880 89
2005-12-08 15:22 51°16.218 2°52.8 -999 155 7.2 101890 90
2005-12-08 15:23 51°16.202 2°52.773 -999 177 7.2 101890 89
2005-12-08 15:24 51°16.189 2°52.767 -999 179 7.2 101900 89
2005-12-08 15:25 51°16.175 2°52.759 -999 171 7.2 101900 88
2005-12-08 15:26 51°16.145 2°52.725 -999 210 7.1 101900 88
2005-12-08 15:27 51°16.059 2°52.747 -999 270 7.2 101880 88
2005-12-08 15:28 51°15.901 2°52.866 -999 303 7.2 101890 88
2005-12-08 15:29 51°15.708 2°53.015 -999 297 7.2 101880 88
2005-12-08 15:30 51°15.516 2°53.169 -999 306 7.1 101880 88
2005-12-08 15:31 51°15.319 2°53.322 -999 302 7.2 101880 89
2005-12-08 15:32 51°15.133 2°53.498 -999 305 7.1 101880 88
2005-12-08 15:33 51°14.963 2°53.706 -999 308 7.1 101880 89
2005-12-08 15:34 51°14.814 2°53.956 -999 316 7 101870 89
2005-12-08 15:35 51°14.695 2°54.242 -999 316 7 101860 89
2005-12-08 15:36 51°14.577 2°54.537 -999 42 7 101870 89
2005-12-08 15:37 51°14.456 2°54.822 -999 318 7 101860 89
2005-12-08 15:38 51°14.345 2°55.088 -999 323 7 101870 89
2005-12-08 15:39 51°14.281 2°55.239 -999 306 7 101900 89
2005-12-08 15:40 51°14.225 2°55.308 -999 272 7 101900 89
2005-12-08 15:41 51°14.164 2°55.361 -999 295 6.9 101910 89
2005-12-08 15:42 51°14.065 2°55.437 -999 304 6.9 101910 89
2005-12-08 15:43 51°13.953 2°55.526 -999 7 6.9 101910 89
2005-12-08 15:44 51°13.833 2°55.626 -999 -999 6.8 101920 89
2005-12-08 15:45 51°13.724 2°55.762 -999 306 6.8 101920 89
2005-12-08 15:46 51°13.658 2°55.902 -999 311 6.7 101920 89
2005-12-08 15:47 51°13.616 2°56.02 -999 318 6.7 101920 89
2005-12-08 15:48 51°13.599 2°56.092 -999 270 6.7 101920 89